NOAA 16 DEB, 41086

Orbit data source: Space-Track

NOAA 16 DEB, 41086 is space debris in SSO originally from a launch on Thu, 21 Sep 2000 UTC launched from the Air Force Western Test Range (AFWTR). Debris objects in space refer to the collection of defunct objects orbiting the Earth. Examples of debris include non-operational satellites, rocket bodies, and fragments generated from explosions, collisions, or faulty payload assembly.

Loading next visibility...
Identifier
41086, 2000-055AV
Orbit
SSO
Country
Flag of USUS
Related business
Manufacturer
Unknown
Mission
Spacecraft
Bus & Motor
Unknown
Mass
Unknown
Launch date (UTC)
2000-09-21 (25 years ago)
Launch vehicle
Unknown
Launch site
Air Force Western Test Range (AFWTR)
Object type
Payload
Rocket body
Debris
Shape & HBR
Unknown shape, 0.1 m
Radar Cross Section
Small (<0.1 m²)

Expand to show TLE details & history
Last TLE update: 1 day ago

TLE from 1 day ago
0 NOAA 16 DEB
1 41086U 00055AV  26034.90747575  .00017339  00000-0  31703-2 0  9997
2 41086  98.8059 200.2231 0026287  24.5442 335.7004 14.65727865532188
Epoch: 2026-02-03T21:46Z
TLE epoch observation values (Epoch: 2026-02-03T21:46:45.904Z)
Latitude
-0.00007°
Longitude
99.45017°
Altitude
660.821 km
Speed
7.536 km/s
True Right ascension
13h 20m 53s
True Declination
0° 00' 00"
Sunlit
Object was in full shadow at epoch
Visualization orbit readout
Latitude
Unknown
Longitude
Unknown
Altitude
Unknown
Speed
Unknown
Apparent Right ascension
Unknown
Apparent Declination
Unknown
Sunlit
N/A
Visualization observer readout
Local Sidereal Time
09:09:51
Azimuth
Unknown
Elevation
Unknown
Doppler factor
Unknown
Orbital elements
Apogee altitude
690.374 km
Perigee altitude
653.31 km
Semi-major axis
7,049.979 km
Eccentricity
0.00263
Inclination
98.8059°
RAAN
200.2231°
Arg. of periapsis
24.5442°
True anomaly
335.57607°
Mean anomaly
335.7004°
Eccentric anomaly
335.63827°
Mean motion
3.66658 °/min
Orbital period
98.18 mins
BSTAR
0.0031703
Loading maneuver chart data...
Computing Atmospheric mass density...

Documentation

Showing up to 5 results
|